Dewpoint
20 22 21 22 22 24 29 33 33 36 40 43 49 49 52 53 55 57 59 60 61 62 63 65 64 65 67 69 70 70 71 71
20 20 24 23 27 27 29 29 28 33 40 39 46 49 50 52 52 54 58 59 60 61 63 65 66 67 68 70 70 70 71 72
17 17 15 20 27 30 29 30 27 29 34 43 46 49 49 52 53 53 57 59 59 60 62 64 66 67 69 70 70 70 71 71
17 18 17 19 18 28 23 24 33 32 32 41 47 48 52 53 54 54 58 58 59 60 63 64 65 67 69 70 69 69 65 68
16 16 22 18 22 30 33 36 37 32 30 46 50 52 54 55 55 57 58 58 59 59 62 63 65 67 69 70 68 65 70 70
17 15 19 27 32 29 29 29 31 34 30 33 47 52 53 56 56 56 56 58 59 60 61 65 67 68 69 69 69 69 68 65
17 18 22 23 27 29 27 27 26 28 35 36 43 51 53 56 56 56 58 57 59 62 64 66 65 66 67 67 67 66 65 65
15 17 19 29 36 31 32 38 35 42 39 45 53 53 55 56 56 58 62 60 61 63 65 65 65 65 65 65 65 66 66 64
15 29 31 29 30 40 39 42 39 38 40 51 53 53 52 56 57 57 63 64 64 64 65 65 65 65 65 65 66 65 64 64
15 28 22 24 47 47 45 47 50 50 51 51 52 54 55 57 57 59 64 65 65 65 65 65 65 65 66 65 65 65 64 63
17 15 26 42 44 46 44 41 50 50 52 53 53 54 53 56 59 61 65 65 65 65 64 65 65 65 64 65 64 64 63 62
33 25 30 36 49 53 51 41 50 53 52 52 53 46 45 54 60 64 65 65 65 65 66 65 65 65 64 64 64 63 62 61
38 37 39 43 51 53 40 41 52 54 54 54 51 50 53 61 64 65 66 65 66 65 65 65 65 64 63 63 63 63 62 59
42 40 36 53 50 45 47 50 51 52 54 54 56 58 59 62 62 63 65 65 65 65 65 66 65 64 63 63 62 62 60 59
45 42 48 53 52 53 53 50 51 54 56 56 58 60 61 59 61 62 61 63 63 63 63 64 64 64 62 62 62 60 59 57
46 47 51 53 54 54 53 51 52 53 53 57 58 60 61 62 60 62 62 62 62 62 62 62 63 63 62 62 61 60 57 56
48 51 53 52 54 53 54 55 55 55 57 54 59 60 61 61 62 62 61 62 62 61 61 61 61 61 61 60 58 56 56 56
47 51 51 54 57 57 56 57 57 58 57 58 60 59 61 61 62 62 60 61 61 60 60 60 60 60 59 57 57 55 55 55
52 54 55 57 57 57 57 56 56 59 60 60 61 61 61 60 60 59 60 60 60 59 59 59 58 58 58 57 56 55 54 54
Lifted_Index
2 1 1 1 1 0 0 0 0 1 1 0 -0 -1 -1 -2 -2 -2 -1 -1 -1 -1 -1 -1 -1 -1 -1 -2 -3 -4 -4 -4
2 1 1 1 1 0 -0 -0 0 0 1 0 -0 -1 -1 -2 -2 -2 -1 -1 -1 -1 -1 -2 -2 -2 -2 -3 -4 -4 -4 -4
2 1 1 1 0 -0 -0 -0 0 0 0 0 0 -1 -1 -1 -2 -2 -2 -2 -2 -2 -2 -2 -2 -3 -3 -4 -5 -5 -5 -5
2 1 1 1 0 -0 -0 -0 0 0 0 0 0 -0 -1 -1 -2 -2 -2 -2 -2 -2 -2 -2 -3 -3 -4 -4 -5 -5 -5 -5
2 1 1 1 0 -0 -0 -0 -0 0 1 1 0 -0 -1 -2 -2 -3 -2 -2 -2 -3 -2 -3 -3 -4 -4 -5 -5 -5 -5 -5
1 1 1 0 0 -0 -0 -0 0 0 1 1 0 -0 -1 -2 -3 -3 -3 -3 -3 -3 -3 -3 -3 -4 -5 -5 -6 -6 -5 -5
1 1 1 0 0 0 0 0 0 1 1 1 0 -0 -1 -2 -3 -3 -3 -3 -3 -4 -4 -4 -4 -4 -5 -6 -6 -6 -5 -5
1 1 1 0 0 0 0 0 1 1 1 0 0 -0 -1 -2 -2 -3 -3 -3 -3 -4 -4 -5 -5 -5 -5 -5 -5 -5 -4 -3
0 0 0 0 0 0 0 0 0 0 0 0 0 -0 -1 -1 -2 -2 -3 -3 -3 -3 -4 -5 -5 -5 -4 -4 -4 -3 -2 -2
-0 -0 0 0 -0 -0 -0 -0 -1 -1 -0 -0 -0 -0 -1 -1 -1 -2 -2 -3 -3 -3 -4 -4 -4 -3 -2 -1 -2 -2 -2 -1
-0 -0 -0 0 -0 -1 -1 -1 -1 -1 -1 -1 -1 -0 -1 -0 -1 -2 -3 -3 -3 -3 -3 -4 -4 -2 -0 0 -0 -1 -2 -1
-0 -0 -0 0 -0 -1 -1 -0 -1 -1 -1 -1 -1 -0 -0 -0 -1 -2 -3 -4 -4 -4 -4 -4 -3 -2 -0 1 0 -1 -1 -1
-0 -0 -0 -0 -0 -1 -1 -0 -1 -1 -1 -1 -1 -0 -0 -1 -2 -3 -3 -3 -4 -4 -4 -4 -3 -2 -1 1 0 -1 -1 -1
-1 -1 -1 -1 -1 -1 -1 -1 -1 -1 -1 -1 -1 -1 -1 -1 -2 -3 -3 -3 -3 -4 -4 -3 -2 -1 -1 -0 -0 -1 -1 -1
-1 -1 -1 -1 -1 -1 -1 -1 -1 -1 -1 -1 -1 -1 -1 -1 -2 -2 -2 -2 -3 -3 -3 -2 -2 -1 -1 -1 -1 -1 -1 -1
-1 -1 -1 -1 -1 -1 -1 -1 -2 -2 -2 -1 -1 -1 -1 -1 -2 -2 -2 -2 -2 -2 -2 -2 -2 -2 -2 -2 -2 -2 -1 -1
-1 -1 -1 -1 -1 -1 -1 -1 -2 -2 -2 -2 -1 -1 -1 -2 -2 -2 -2 -1 -1 -2 -2 -2 -2 -3 -3 -2 -2 -1 -0 1
-1 -1 -1 -1 -1 -1 -1 -1 -1 -2 -2 -2 -2 -2 -2 -2 -2 -2 -2 -2 -2 -2 -2 -2 -2 -3 -3 -2 -1 0 2 4
-1 -1 -1 -1 -1 -1 -1 -1 -1 -1 -2 -3 -3 -3 -3 -2 -2 -2 -2 -2 -2 -2 -2 -2 -2 -3 -2 -2 -0 2 4 6